EZY1903 EGPF-LEAL

Flight info

Callsign EZY1903
Flight time 2h 44m
Altitude 25000
Route NORBO T256 DCS/N0449F350 DCT ADZOP DCT EGTOC DCT NOKIN N862 KARNO/N0449F340 DCT ALHUP DCT ABWIV DCT PACSE DCT TONQU/N0450F360 DCT SALCO/N0452F350 DCT NENEM P152 PPN/N0454F360 M176 CMA/N0421F240 M176 CLS
Aircraft A320/M-SDE3FGHIRWY/LB1

Departure

Time 2026-05-07 11:56
Airport Glasgow Airport (EGPF)

Arrival

Time 2026-05-07 14:40
Airport Alicante-Elche Miguel Hernández Airport (LEAL)
Time Latitude Longitude Altitude Speed Heading
2026-05-07 11:32 55.86610 -4.43424 33 ft 0 kts 73°
2026-05-07 11:47 55.86607 -4.43444 33 ft 4 kts 69°
2026-05-07 11:47 55.86595 -4.43487 30 ft 4 kts 54°
2026-05-07 11:47 55.86577 -4.43521 32 ft 4 kts 27°
2026-05-07 11:47 55.86557 -4.43529 31 ft 1 kts 343°
2026-05-07 11:48 55.86556 -4.43529 31 ft 0 kts 343°
2026-05-07 11:49 55.86561 -4.43532 30 ft 5 kts 343°
2026-05-07 11:50 55.86634 -4.43570 33 ft 13 kts 343°
2026-05-07 11:50 55.86700 -4.43604 33 ft 7 kts 344°
2026-05-07 11:50 55.86738 -4.43597 33 ft 10 kts 30°
2026-05-07 11:50 55.86770 -4.43468 33 ft 10 kts 75°
2026-05-07 11:51 55.86789 -4.43344 33 ft 13 kts 75°
2026-05-07 11:51 55.86815 -4.43187 33 ft 16 kts 72°
2026-05-07 11:51 55.86844 -4.43015 33 ft 13 kts 74°
2026-05-07 11:51 55.86901 -4.42920 33 ft 15 kts 27°
2026-05-07 11:52 55.87016 -4.42830 33 ft 17 kts 22°
2026-05-07 11:52 55.87121 -4.42757 33 ft 16 kts 21°
2026-05-07 11:52 55.87225 -4.42687 34 ft 15 kts 20°
2026-05-07 11:52 55.87344 -4.42608 34 ft 20 kts 21°
2026-05-07 11:53 55.87443 -4.42475 34 ft 16 kts 44°
2026-05-07 11:53 55.87516 -4.42343 33 ft 15 kts 45°
2026-05-07 11:53 55.87594 -4.42197 33 ft 19 kts 47°
2026-05-07 11:53 55.87682 -4.42027 30 ft 18 kts 47°
2026-05-07 11:54 55.87763 -4.41888 31 ft 15 kts 37°
2026-05-07 11:54 55.87862 -4.41838 30 ft 17 kts 355°
2026-05-07 11:54 55.87921 -4.41933 32 ft 10 kts 272°
2026-05-07 11:54 55.87903 -4.41994 31 ft 0 kts 231°
2026-05-07 11:55 55.87886 -4.42029 33 ft 21 kts 227°
2026-05-07 11:55 55.87604 -4.42545 38 ft 91 kts 225°
2026-05-07 11:55 55.87043 -4.43608 40 ft 142 kts 228°
2026-05-07 11:56 55.86374 -4.44999 596 ft 144 kts 224°
2026-05-07 11:56 55.85694 -4.46314 1304 ft 142 kts 221°
2026-05-07 11:56 55.84936 -4.47601 1684 ft 163 kts 221°
2026-05-07 11:56 55.84064 -4.49094 1945 ft 185 kts 222°
2026-05-07 11:57 55.83096 -4.50779 2234 ft 205 kts 223°
2026-05-07 11:57 55.82018 -4.52660 2580 ft 228 kts 223°
2026-05-07 11:57 55.80858 -4.54687 3312 ft 236 kts 224°
2026-05-07 11:57 55.79686 -4.56745 4200 ft 238 kts 224°
2026-05-07 11:58 55.78499 -4.58836 5051 ft 242 kts 224°
2026-05-07 11:58 55.77293 -4.60963 5881 ft 245 kts 224°
2026-05-07 11:58 55.76094 -4.63079 6689 ft 248 kts 224°
2026-05-07 11:58 55.74860 -4.65253 7493 ft 251 kts 224°
2026-05-07 11:59 55.73610 -4.67457 8261 ft 255 kts 224°
2026-05-07 11:59 55.72338 -4.69690 9038 ft 258 kts 223°
2026-05-07 11:59 55.71039 -4.71926 9807 ft 262 kts 223°
2026-05-07 11:59 55.69680 -4.74104 10282 ft 275 kts 214°
2026-05-07 12:00 55.67841 -4.75555 10459 ft 299 kts 193°
2026-05-07 12:00 55.65706 -4.75863 10602 ft 323 kts 184°
2026-05-07 12:00 55.63396 -4.75990 10938 ft 337 kts 181°
2026-05-07 12:00 55.61029 -4.75526 11521 ft 346 kts 170°
2026-05-07 12:01 55.58725 -4.74153 12156 ft 354 kts 158°
2026-05-07 12:01 55.56592 -4.71883 12785 ft 363 kts 146°
2026-05-07 12:01 55.54614 -4.69056 13409 ft 367 kts 144°
2026-05-07 12:01 55.52643 -4.66231 13997 ft 371 kts 144°
2026-05-07 12:02 55.50623 -4.63344 14532 ft 375 kts 144°
2026-05-07 12:02 55.48577 -4.60427 15086 ft 378 kts 144°
2026-05-07 12:02 55.46516 -4.57494 15620 ft 382 kts 144°
2026-05-07 12:02 55.44434 -4.54530 16155 ft 385 kts 144°
2026-05-07 12:03 55.42343 -4.51558 16666 ft 389 kts 144°
2026-05-07 12:03 55.40229 -4.48557 17171 ft 392 kts 144°
2026-05-07 12:03 55.38124 -4.45573 17646 ft 395 kts 144°
2026-05-07 12:03 55.35966 -4.42515 18160 ft 399 kts 144°
2026-05-07 12:04 55.33789 -4.39435 18621 ft 402 kts 144°
2026-05-07 12:04 55.31603 -4.36345 19070 ft 404 kts 144°
2026-05-07 12:04 55.29407 -4.33247 19543 ft 406 kts 144°
2026-05-07 12:04 55.27196 -4.30134 20008 ft 407 kts 144°
2026-05-07 12:05 55.24977 -4.27018 20473 ft 409 kts 144°
2026-05-07 12:05 55.22750 -4.23894 20914 ft 411 kts 144°
2026-05-07 12:05 55.20538 -4.20798 21357 ft 413 kts 144°
2026-05-07 12:05 55.18291 -4.17633 21803 ft 415 kts 142°
2026-05-07 12:06 55.16209 -4.14071 22229 ft 420 kts 136°
2026-05-07 12:06 55.14191 -4.10347 22629 ft 422 kts 136°
2026-05-07 12:06 55.12187 -4.06649 23020 ft 424 kts 136°
2026-05-07 12:06 55.10151 -4.02896 23408 ft 426 kts 136°
2026-05-07 12:07 55.08106 -3.99127 23761 ft 428 kts 136°
2026-05-07 12:07 55.06048 -3.95341 24070 ft 430 kts 136°
2026-05-07 12:07 55.03980 -3.91544 24385 ft 432 kts 136°
2026-05-07 12:07 55.01926 -3.87780 24677 ft 435 kts 136°
2026-05-07 12:08 54.99831 -3.83952 24985 ft 437 kts 136°
2026-05-07 12:08 54.97724 -3.80116 25280 ft 439 kts 136°
2026-05-07 12:08 54.95505 -3.76468 25570 ft 439 kts 143°
2026-05-07 12:08 54.92995 -3.73459 25860 ft 438 kts 152°
2026-05-07 12:09 54.90249 -3.71173 26141 ft 437 kts 161°
2026-05-07 12:09 54.87386 -3.69345 26404 ft 439 kts 162°
2026-05-07 12:09 54.84515 -3.67512 26674 ft 441 kts 161°
2026-05-07 12:09 54.81624 -3.65655 26939 ft 442 kts 161°
2026-05-07 12:10 54.78727 -3.63786 27198 ft 444 kts 161°
2026-05-07 12:10 54.75854 -3.61934 27459 ft 446 kts 161°
2026-05-07 12:10 54.72931 -3.60054 27715 ft 448 kts 161°
2026-05-07 12:10 54.70000 -3.58173 27968 ft 449 kts 161°
2026-05-07 12:11 54.67067 -3.56294 28312 ft 449 kts 161°
2026-05-07 12:11 54.64140 -3.54428 28690 ft 447 kts 161°
2026-05-07 12:11 54.61240 -3.52586 29050 ft 447 kts 161°
2026-05-07 12:11 54.58326 -3.50744 29413 ft 446 kts 161°
2026-05-07 12:12 54.55406 -3.48903 29778 ft 445 kts 161°
2026-05-07 12:12 54.52493 -3.47061 30129 ft 444 kts 161°
2026-05-07 12:12 54.49616 -3.45240 30449 ft 443 kts 161°
2026-05-07 12:12 54.46713 -3.43406 30786 ft 442 kts 161°
2026-05-07 12:13 54.43829 -3.41587 31127 ft 440 kts 161°
2026-05-07 12:13 54.40963 -3.39779 31454 ft 439 kts 161°
2026-05-07 12:13 54.38126 -3.37992 31783 ft 437 kts 161°
2026-05-07 12:13 54.35268 -3.36201 32098 ft 436 kts 161°
2026-05-07 12:14 54.32424 -3.34421 32443 ft 435 kts 161°
2026-05-07 12:14 54.29590 -3.32645 32771 ft 433 kts 160°
2026-05-07 12:14 54.26761 -3.30870 33108 ft 431 kts 160°
2026-05-07 12:14 54.23942 -3.29110 33448 ft 430 kts 160°
2026-05-07 12:15 54.21136 -3.27366 33777 ft 428 kts 160°
2026-05-07 12:15 54.18288 -3.25854 34087 ft 427 kts 167°
2026-05-07 12:15 54.15353 -3.25098 34332 ft 426 kts 175°
2026-05-07 12:15 54.12393 -3.24650 34544 ft 427 kts 174°
2026-05-07 12:16 54.09432 -3.24197 34742 ft 427 kts 174°
2026-05-07 12:16 54.06499 -3.23742 34937 ft 428 kts 174°
2026-05-07 12:16 54.03520 -3.23275 35027 ft 430 kts 174°
2026-05-07 12:17 53.97585 -3.21806 35043 ft 431 kts 167°
2026-05-07 12:17 53.91715 -3.19555 35050 ft 432 kts 167°
2026-05-07 12:18 53.85874 -3.17333 35065 ft 432 kts 167°
2026-05-07 12:18 53.79999 -3.15107 35054 ft 432 kts 167°
2026-05-07 12:19 53.74163 -3.12913 35051 ft 431 kts 167°
2026-05-07 12:19 53.68283 -3.10713 35050 ft 432 kts 167°
2026-05-07 12:20 53.62443 -3.08522 35026 ft 432 kts 167°
2026-05-07 12:20 53.56572 -3.06323 35030 ft 432 kts 167°
2026-05-07 12:21 53.50694 -3.04131 35034 ft 432 kts 167°
2026-05-07 12:21 53.44815 -3.01947 35035 ft 432 kts 167°
2026-05-07 12:22 53.38961 -2.99773 35058 ft 432 kts 166°
2026-05-07 12:22 53.33075 -2.97605 35054 ft 432 kts 166°
2026-05-07 12:23 53.27230 -2.95458 35050 ft 432 kts 166°
2026-05-07 12:23 53.21350 -2.93291 35045 ft 432 kts 166°
2026-05-07 12:24 53.15505 -2.91139 35057 ft 433 kts 166°
2026-05-07 12:24 53.09610 -2.89007 35051 ft 433 kts 168°
2026-05-07 12:25 53.03571 -2.88634 35050 ft 436 kts 181°
2026-05-07 12:25 52.97548 -2.89159 35049 ft 436 kts 181°
2026-05-07 12:26 52.91481 -2.89661 35051 ft 436 kts 181°
2026-05-07 12:26 52.85434 -2.90772 35046 ft 437 kts 186°
2026-05-07 12:27 52.79398 -2.92208 35053 ft 438 kts 186°
2026-05-07 12:27 52.73391 -2.93618 35050 ft 438 kts 186°
2026-05-07 12:28 52.67324 -2.94429 35041 ft 436 kts 181°
2026-05-07 12:28 52.61277 -2.94926 35040 ft 437 kts 181°
2026-05-07 12:29 52.55187 -2.95437 35041 ft 437 kts 181°
2026-05-07 12:29 52.49131 -2.95939 35035 ft 437 kts 181°
2026-05-07 12:30 52.43034 -2.96443 35046 ft 438 kts 181°
2026-05-07 12:30 52.36941 -2.96935 35041 ft 438 kts 181°
2026-05-07 12:31 52.30885 -2.97434 35035 ft 438 kts 181°
2026-05-07 12:31 52.24798 -2.97935 35035 ft 438 kts 181°
2026-05-07 12:32 52.18701 -2.98428 35044 ft 438 kts 182°
2026-05-07 12:32 52.12642 -2.98917 35045 ft 438 kts 182°
2026-05-07 12:33 52.03478 -2.99657 35055 ft 438 kts 182°
2026-05-07 12:33 51.97424 -3.00140 35068 ft 438 kts 182°
2026-05-07 12:34 51.91321 -3.00632 35077 ft 438 kts 182°
2026-05-07 12:34 51.86240 -3.01119 35089 ft 438 kts 185°
2026-05-07 12:35 51.79198 -3.02527 35104 ft 438 kts 188°
2026-05-07 12:35 51.74177 -3.03739 35093 ft 438 kts 188°
2026-05-07 12:36 51.68135 -3.05101 35093 ft 438 kts 187°
2026-05-07 12:36 51.62103 -3.06345 35086 ft 438 kts 187°
2026-05-07 12:37 51.56055 -3.07565 35074 ft 438 kts 187°
2026-05-07 12:37 51.50013 -3.08796 35057 ft 438 kts 187°
2026-05-07 12:38 51.43978 -3.10042 35054 ft 438 kts 188°
2026-05-07 12:38 51.37922 -3.11300 35049 ft 439 kts 188°
2026-05-07 12:39 51.31854 -3.12557 35048 ft 439 kts 188°
2026-05-07 12:39 51.25794 -3.13794 35047 ft 439 kts 188°
2026-05-07 12:40 51.19732 -3.15020 35047 ft 439 kts 188°
2026-05-07 12:40 51.13699 -3.16245 35048 ft 439 kts 188°
2026-05-07 12:41 51.07627 -3.17476 35049 ft 438 kts 188°
2026-05-07 12:41 51.01563 -3.18703 35043 ft 438 kts 188°
2026-05-07 12:42 50.95541 -3.19915 35051 ft 438 kts 188°
2026-05-07 12:42 50.89491 -3.21136 35053 ft 438 kts 188°
2026-05-07 12:43 50.83443 -3.22357 35053 ft 437 kts 188°
2026-05-07 12:43 50.77404 -3.23568 35053 ft 437 kts 188°
2026-05-07 12:44 50.71394 -3.24762 35053 ft 437 kts 188°
2026-05-07 12:44 50.65348 -3.25956 35048 ft 437 kts 188°
2026-05-07 12:45 50.59296 -3.27158 35048 ft 437 kts 188°
2026-05-07 12:45 50.53289 -3.28358 35053 ft 437 kts 189°
2026-05-07 12:46 50.47246 -3.29560 35052 ft 437 kts 188°
2026-05-07 12:46 50.41244 -3.30733 35054 ft 437 kts 188°
2026-05-07 12:47 50.35269 -3.32364 35055 ft 435 kts 193°
2026-05-07 12:47 50.29346 -3.34376 35050 ft 434 kts 193°
2026-05-07 12:48 50.23459 -3.36367 35048 ft 434 kts 193°
2026-05-07 12:48 50.17545 -3.38359 35042 ft 434 kts 193°
2026-05-07 12:49 50.11666 -3.40336 35050 ft 434 kts 193°
2026-05-07 12:49 50.05761 -3.42312 35044 ft 434 kts 193°
2026-05-07 12:50 49.99845 -3.44285 35041 ft 434 kts 193°
2026-05-07 12:50 49.93967 -3.46246 35042 ft 433 kts 193°
2026-05-07 12:51 49.88062 -3.48214 35038 ft 433 kts 193°
2026-05-07 12:51 49.82191 -3.50153 35032 ft 433 kts 193°
2026-05-07 12:52 49.76290 -3.52103 35034 ft 433 kts 193°
2026-05-07 12:52 49.70288 -3.52718 35027 ft 435 kts 179°
2026-05-07 12:53 49.64241 -3.52248 35022 ft 435 kts 179°
2026-05-07 12:53 49.58193 -3.51800 35016 ft 435 kts 179°
2026-05-07 12:54 49.52185 -3.51355 35014 ft 435 kts 179°
2026-05-07 12:54 49.46121 -3.50903 35015 ft 435 kts 179°
2026-05-07 12:55 49.40096 -3.50465 35021 ft 435 kts 179°
2026-05-07 12:55 49.34034 -3.50037 35020 ft 435 kts 179°
2026-05-07 12:56 49.27975 -3.49592 35020 ft 435 kts 179°
2026-05-07 12:56 49.21957 -3.49151 35021 ft 435 kts 179°
2026-05-07 12:57 49.15903 -3.48707 35026 ft 435 kts 179°
2026-05-07 12:57 49.09841 -3.48272 35023 ft 435 kts 179°
2026-05-07 12:58 49.03832 -3.47840 35018 ft 434 kts 179°
2026-05-07 12:58 48.97782 -3.47396 35012 ft 434 kts 179°
2026-05-07 12:59 48.91739 -3.46965 35006 ft 434 kts 179°
2026-05-07 12:59 48.85744 -3.46534 35005 ft 433 kts 179°
2026-05-07 13:00 48.79716 -3.46103 35004 ft 433 kts 179°
2026-05-07 13:00 48.73676 -3.45670 34996 ft 433 kts 179°
2026-05-07 13:01 48.67681 -3.45231 35001 ft 433 kts 179°
2026-05-07 13:01 48.61652 -3.44796 35002 ft 432 kts 179°
2026-05-07 13:02 48.55667 -3.44378 34995 ft 432 kts 179°
2026-05-07 13:02 48.49652 -3.43964 34982 ft 432 kts 179°
2026-05-07 13:03 48.43639 -3.43537 34990 ft 432 kts 178°
2026-05-07 13:03 48.37660 -3.43112 34991 ft 432 kts 179°
2026-05-07 13:04 48.31634 -3.42694 34987 ft 432 kts 179°
2026-05-07 13:04 48.25634 -3.42274 34991 ft 432 kts 178°
2026-05-07 13:05 48.19641 -3.41848 34995 ft 432 kts 178°
2026-05-07 13:05 48.13613 -3.41431 34994 ft 432 kts 178°
2026-05-07 13:06 48.07627 -3.41012 35001 ft 432 kts 179°
2026-05-07 13:06 48.01596 -3.40601 35012 ft 433 kts 179°
2026-05-07 13:07 47.95608 -3.40190 35016 ft 433 kts 179°
2026-05-07 13:07 47.89577 -3.39765 35017 ft 433 kts 179°
2026-05-07 13:08 47.83555 -3.39350 35025 ft 432 kts 179°
2026-05-07 13:08 47.77572 -3.38932 35022 ft 433 kts 179°
2026-05-07 13:09 47.71538 -3.38524 35025 ft 433 kts 179°
2026-05-07 13:09 47.65550 -3.38115 35023 ft 433 kts 179°
2026-05-07 13:10 47.59508 -3.37701 35022 ft 433 kts 179°
2026-05-07 13:10 47.53515 -3.37297 35020 ft 433 kts 179°
2026-05-07 13:11 47.47477 -3.36887 35018 ft 433 kts 179°
2026-05-07 13:11 47.41445 -3.36473 35019 ft 433 kts 179°
2026-05-07 13:12 47.35446 -3.36066 35018 ft 433 kts 179°
2026-05-07 13:12 47.29405 -3.35663 35018 ft 433 kts 179°
2026-05-07 13:13 47.23428 -3.35264 35017 ft 432 kts 179°
2026-05-07 13:13 47.17405 -3.34852 35014 ft 432 kts 179°
2026-05-07 13:14 47.11391 -3.34444 35012 ft 432 kts 179°
2026-05-07 13:14 47.05398 -3.34042 35016 ft 432 kts 179°
2026-05-07 13:15 46.99376 -3.33630 35013 ft 432 kts 179°
2026-05-07 13:15 46.93389 -3.33234 35009 ft 432 kts 179°
2026-05-07 13:16 46.87367 -3.32841 35010 ft 432 kts 179°
2026-05-07 13:16 46.81342 -3.32443 35009 ft 432 kts 179°
2026-05-07 13:17 46.75367 -3.32051 35007 ft 432 kts 179°
2026-05-07 13:17 46.69345 -3.31655 35004 ft 432 kts 179°
2026-05-07 13:18 46.63352 -3.31258 35000 ft 432 kts 179°
2026-05-07 13:18 46.57328 -3.30867 35006 ft 432 kts 179°
2026-05-07 13:19 46.51334 -3.30472 35008 ft 433 kts 179°
2026-05-07 13:19 46.45298 -3.30077 35009 ft 433 kts 179°
2026-05-07 13:20 46.39308 -3.29691 35007 ft 433 kts 179°
2026-05-07 13:20 46.33286 -3.29301 35013 ft 432 kts 179°
2026-05-07 13:21 46.27264 -3.28900 35013 ft 432 kts 179°
2026-05-07 13:21 46.21281 -3.28509 35010 ft 432 kts 179°
2026-05-07 13:22 46.15268 -3.28131 35009 ft 432 kts 179°
2026-05-07 13:22 46.09284 -3.27747 35011 ft 432 kts 179°
2026-05-07 13:23 46.04279 -3.27415 35008 ft 432 kts 179°
2026-05-07 13:23 45.98282 -3.27034 35007 ft 431 kts 179°
2026-05-07 13:24 45.92316 -3.26643 35003 ft 431 kts 179°
2026-05-07 13:24 45.86321 -3.26255 35002 ft 431 kts 179°
2026-05-07 13:25 45.80320 -3.25877 34998 ft 431 kts 179°
2026-05-07 13:25 45.74331 -3.25499 35000 ft 431 kts 179°
2026-05-07 13:26 45.68365 -3.25116 34999 ft 431 kts 179°
2026-05-07 13:26 45.62357 -3.24731 34999 ft 431 kts 179°
2026-05-07 13:27 45.56389 -3.24361 35001 ft 430 kts 179°
2026-05-07 13:27 45.50403 -3.23983 35002 ft 430 kts 179°
2026-05-07 13:28 45.44419 -3.23599 35001 ft 429 kts 179°
2026-05-07 13:28 45.38481 -3.23232 34991 ft 429 kts 179°
2026-05-07 13:29 45.32503 -3.22855 34996 ft 429 kts 179°
2026-05-07 13:29 45.26570 -3.22486 34994 ft 429 kts 179°
2026-05-07 13:30 45.20601 -3.22113 34990 ft 428 kts 179°
2026-05-07 13:30 45.14645 -3.21734 34988 ft 428 kts 179°
2026-05-07 13:31 45.08729 -3.21363 34986 ft 427 kts 180°
2026-05-07 13:31 45.02777 -3.20995 34982 ft 427 kts 180°
2026-05-07 13:32 44.96867 -3.20631 34980 ft 426 kts 180°
2026-05-07 13:32 44.90938 -3.20263 34975 ft 426 kts 180°
2026-05-07 13:33 44.85017 -3.19886 34974 ft 425 kts 180°
2026-05-07 13:33 44.79120 -3.19523 34975 ft 425 kts 180°
2026-05-07 13:34 44.70275 -3.18988 34975 ft 425 kts 180°
2026-05-07 13:35 44.64352 -3.18622 34969 ft 425 kts 180°
2026-05-07 13:35 44.58428 -3.18257 34972 ft 425 kts 180°
2026-05-07 13:36 44.52550 -3.17888 34968 ft 425 kts 180°
2026-05-07 13:36 44.46625 -3.17523 34963 ft 425 kts 180°
2026-05-07 13:37 44.40743 -3.17174 34960 ft 425 kts 180°
2026-05-07 13:37 44.34825 -3.16820 34958 ft 425 kts 180°
2026-05-07 13:38 44.28949 -3.16458 34956 ft 424 kts 180°
2026-05-07 13:38 44.23040 -3.16100 34952 ft 424 kts 180°
2026-05-07 13:39 44.17121 -3.15751 34945 ft 424 kts 180°
2026-05-07 13:39 44.11254 -3.15399 34942 ft 424 kts 180°
2026-05-07 13:40 44.05440 -3.13851 34940 ft 431 kts 161°
2026-05-07 13:40 44.00271 -3.09530 34933 ft 439 kts 144°
2026-05-07 13:41 43.95559 -3.04195 34931 ft 439 kts 145°
2026-05-07 13:41 43.90799 -2.98859 34929 ft 439 kts 145°
2026-05-07 13:42 43.86035 -2.93527 34924 ft 440 kts 145°
2026-05-07 13:42 43.81297 -2.88216 34927 ft 440 kts 144°
2026-05-07 13:43 43.76524 -2.82877 34925 ft 440 kts 145°
2026-05-07 13:43 43.71753 -2.77558 34920 ft 440 kts 145°
2026-05-07 13:44 43.66985 -2.72251 34921 ft 440 kts 144°
2026-05-07 13:44 43.62237 -2.66970 34921 ft 440 kts 145°
2026-05-07 13:45 43.57467 -2.61680 34915 ft 440 kts 144°
2026-05-07 13:45 43.52689 -2.56388 34915 ft 439 kts 144°
2026-05-07 13:46 43.47937 -2.51146 34912 ft 439 kts 145°
2026-05-07 13:46 43.43156 -2.45873 34916 ft 439 kts 145°
2026-05-07 13:47 43.38380 -2.40612 34916 ft 439 kts 145°
2026-05-07 13:47 43.33632 -2.35412 34922 ft 439 kts 145°
2026-05-07 13:48 43.28849 -2.30183 34912 ft 438 kts 145°
2026-05-07 13:48 43.24109 -2.24992 34905 ft 438 kts 145°
2026-05-07 13:49 43.19324 -2.19768 34909 ft 438 kts 145°
2026-05-07 13:49 43.14553 -2.14584 34896 ft 438 kts 145°
2026-05-07 13:50 43.09807 -2.09435 34896 ft 437 kts 145°
2026-05-07 13:50 43.05032 -2.04251 34901 ft 437 kts 145°
2026-05-07 13:51 43.00256 -1.99077 34902 ft 437 kts 145°
2026-05-07 13:51 42.95495 -1.93955 34902 ft 437 kts 146°
2026-05-07 13:52 42.90717 -1.88825 34913 ft 437 kts 146°
2026-05-07 13:52 42.85938 -1.83686 34913 ft 437 kts 146°
2026-05-07 13:53 42.81160 -1.78547 34919 ft 437 kts 146°
2026-05-07 13:53 42.76401 -1.73485 34924 ft 435 kts 149°
2026-05-07 13:54 42.71038 -1.69897 34921 ft 426 kts 167°
2026-05-07 13:54 42.65252 -1.68397 34921 ft 423 kts 174°
2026-05-07 13:55 42.59475 -1.67113 34920 ft 423 kts 173°
2026-05-07 13:55 42.53644 -1.65812 34917 ft 423 kts 174°
2026-05-07 13:56 42.47858 -1.64535 34915 ft 423 kts 174°
2026-05-07 13:56 42.42042 -1.63256 34910 ft 423 kts 174°
2026-05-07 13:57 42.36217 -1.61965 34914 ft 423 kts 174°
2026-05-07 13:57 42.30443 -1.60690 34916 ft 422 kts 174°
2026-05-07 13:58 42.24635 -1.59406 34918 ft 422 kts 174°
2026-05-07 13:58 42.18833 -1.58128 34919 ft 422 kts 173°
2026-05-07 13:59 42.13061 -1.56870 34916 ft 422 kts 174°
2026-05-07 13:59 42.07237 -1.55613 34924 ft 422 kts 174°
2026-05-07 14:00 42.01465 -1.54354 34924 ft 422 kts 173°
2026-05-07 14:00 41.95656 -1.53082 34927 ft 422 kts 173°
2026-05-07 14:01 41.89842 -1.51816 34930 ft 422 kts 173°
2026-05-07 14:01 41.84075 -1.50563 34927 ft 422 kts 174°
2026-05-07 14:02 41.78264 -1.49310 34930 ft 422 kts 174°
2026-05-07 14:02 41.72454 -1.48056 34935 ft 422 kts 174°
2026-05-07 14:03 41.66656 -1.46807 34927 ft 422 kts 173°
2026-05-07 14:03 41.60895 -1.45565 34935 ft 422 kts 174°
2026-05-07 14:04 41.55097 -1.44316 34944 ft 421 kts 174°
2026-05-07 14:04 41.49289 -1.43069 34941 ft 421 kts 174°
2026-05-07 14:05 41.43529 -1.41836 34937 ft 422 kts 174°
2026-05-07 14:05 41.37708 -1.40595 34942 ft 422 kts 174°
2026-05-07 14:06 41.31946 -1.39366 34936 ft 422 kts 174°
2026-05-07 14:06 41.26135 -1.38124 34936 ft 423 kts 174°
2026-05-07 14:07 41.20318 -1.36881 34940 ft 423 kts 174°
2026-05-07 14:07 41.14516 -1.35659 34941 ft 424 kts 174°
2026-05-07 14:08 41.08678 -1.34427 34940 ft 424 kts 174°
2026-05-07 14:08 41.02838 -1.33189 34945 ft 424 kts 174°
2026-05-07 14:09 40.97023 -1.31963 34951 ft 424 kts 174°
2026-05-07 14:09 40.91176 -1.30739 34953 ft 425 kts 174°
2026-05-07 14:10 40.85359 -1.29498 34958 ft 425 kts 173°
2026-05-07 14:10 40.79535 -1.27967 34966 ft 426 kts 172°
2026-05-07 14:11 40.73758 -1.26292 34974 ft 426 kts 171°
2026-05-07 14:11 40.68944 -1.24922 34979 ft 425 kts 172°
2026-05-07 14:12 40.62183 -1.23089 34980 ft 425 kts 172°
2026-05-07 14:12 40.57352 -1.21795 34982 ft 425 kts 172°
2026-05-07 14:13 40.50620 -1.19982 34980 ft 424 kts 172°
2026-05-07 14:13 40.45801 -1.18675 34975 ft 424 kts 172°
2026-05-07 14:14 40.40003 -1.17108 34974 ft 424 kts 172°
2026-05-07 14:14 40.34210 -1.15552 34971 ft 424 kts 172°
2026-05-07 14:15 40.28440 -1.13993 34972 ft 424 kts 173°
2026-05-07 14:15 40.22644 -1.12439 34967 ft 424 kts 173°
2026-05-07 14:16 40.16887 -1.10902 34964 ft 424 kts 173°
2026-05-07 14:16 40.11096 -1.09353 34970 ft 424 kts 173°
2026-05-07 14:17 40.05340 -1.07814 34965 ft 424 kts 173°
2026-05-07 14:17 39.99540 -1.06271 34957 ft 424 kts 173°
2026-05-07 14:18 39.93778 -1.04738 34949 ft 425 kts 173°
2026-05-07 14:18 39.87970 -1.03195 34950 ft 425 kts 173°
2026-05-07 14:19 39.82177 -1.01664 34940 ft 425 kts 173°
2026-05-07 14:19 39.79268 -1.00896 34703 ft 425 kts 173°
2026-05-07 14:19 39.76402 -1.00140 34471 ft 424 kts 173°
2026-05-07 14:19 39.73508 -0.99374 34235 ft 424 kts 173°
2026-05-07 14:20 39.70618 -0.98617 34005 ft 423 kts 174°
2026-05-07 14:20 39.67721 -0.98003 33738 ft 421 kts 176°
2026-05-07 14:20 39.64819 -0.97539 33423 ft 420 kts 178°
2026-05-07 14:20 39.61893 -0.97155 32429 ft 424 kts 178°
2026-05-07 14:21 39.58981 -0.96807 31530 ft 425 kts 178°
2026-05-07 14:21 39.56016 -0.96444 30565 ft 428 kts 177°
2026-05-07 14:21 39.53040 -0.96049 29465 ft 432 kts 176°
2026-05-07 14:21 39.50044 -0.95624 28384 ft 434 kts 175°
2026-05-07 14:22 39.47030 -0.95179 27267 ft 437 kts 175°
2026-05-07 14:22 39.43998 -0.94722 26349 ft 436 kts 175°
2026-05-07 14:22 39.41042 -0.94272 25689 ft 429 kts 175°
2026-05-07 14:22 39.38088 -0.93828 24937 ft 426 kts 175°
2026-05-07 14:23 39.35138 -0.93391 24203 ft 423 kts 175°
2026-05-07 14:23 39.32211 -0.92964 23472 ft 421 kts 175°
2026-05-07 14:23 39.29310 -0.92546 22709 ft 418 kts 175°
2026-05-07 14:23 39.26428 -0.92133 22052 ft 413 kts 175°
2026-05-07 14:24 39.23574 -0.91723 21406 ft 409 kts 175°
2026-05-07 14:24 39.20782 -0.91318 20778 ft 405 kts 175°
2026-05-07 14:24 39.17993 -0.90908 20155 ft 402 kts 174°
2026-05-07 14:24 39.15227 -0.90502 19562 ft 398 kts 174°
2026-05-07 14:25 39.12484 -0.90101 18980 ft 394 kts 174°
2026-05-07 14:25 39.09771 -0.89705 18436 ft 390 kts 174°
2026-05-07 14:25 39.07086 -0.89316 17841 ft 387 kts 174°
2026-05-07 14:25 39.04429 -0.88930 17340 ft 381 kts 174°
2026-05-07 14:26 39.01815 -0.88551 16844 ft 376 kts 174°
2026-05-07 14:26 38.99256 -0.88181 16364 ft 371 kts 174°
2026-05-07 14:26 38.96700 -0.87811 15897 ft 367 kts 174°
2026-05-07 14:26 38.94168 -0.87445 15411 ft 364 kts 174°
2026-05-07 14:27 38.91651 -0.87081 14926 ft 361 kts 174°
2026-05-07 14:27 38.89195 -0.86724 14427 ft 358 kts 174°
2026-05-07 14:27 38.86724 -0.86363 13925 ft 357 kts 174°
2026-05-07 14:27 38.84257 -0.86004 13359 ft 356 kts 174°
2026-05-07 14:28 38.81806 -0.85652 12809 ft 353 kts 174°
2026-05-07 14:28 38.79368 -0.85304 12247 ft 351 kts 174°
2026-05-07 14:28 38.76942 -0.84952 11675 ft 349 kts 174°
2026-05-07 14:28 38.74542 -0.84603 11103 ft 347 kts 174°
2026-05-07 14:29 38.72171 -0.84261 10869 ft 335 kts 174°
2026-05-07 14:29 38.69896 -0.83933 10727 ft 322 kts 174°
2026-05-07 14:29 38.67712 -0.83619 10617 ft 310 kts 174°
2026-05-07 14:29 38.65627 -0.83323 10487 ft 299 kts 174°
2026-05-07 14:30 38.63598 -0.83035 10263 ft 288 kts 174°
2026-05-07 14:30 38.61626 -0.82756 9992 ft 283 kts 173°
2026-05-07 14:30 38.59678 -0.82479 9825 ft 281 kts 173°
2026-05-07 14:30 38.57722 -0.82197 9695 ft 283 kts 173°
2026-05-07 14:31 38.55795 -0.81922 9558 ft 281 kts 173°
2026-05-07 14:31 38.53871 -0.81870 9420 ft 271 kts 186°
2026-05-07 14:31 38.52081 -0.82361 9210 ft 255 kts 195°
2026-05-07 14:31 38.50390 -0.82993 8785 ft 251 kts 195°
2026-05-07 14:32 38.48712 -0.83610 8308 ft 250 kts 194°
2026-05-07 14:32 38.47059 -0.84213 7898 ft 249 kts 194°
2026-05-07 14:32 38.45395 -0.84820 7413 ft 248 kts 194°
2026-05-07 14:32 38.43739 -0.85425 6924 ft 247 kts 194°
2026-05-07 14:33 38.42101 -0.86022 6557 ft 240 kts 194°
2026-05-07 14:33 38.40538 -0.86594 6406 ft 227 kts 193°
2026-05-07 14:33 38.39061 -0.87135 6286 ft 215 kts 193°
2026-05-07 14:33 38.37662 -0.87649 6220 ft 200 kts 193°
2026-05-07 14:34 38.36345 -0.88064 6001 ft 199 kts 184°
2026-05-07 14:34 38.34977 -0.87964 5617 ft 196 kts 163°
2026-05-07 14:34 38.33734 -0.87271 5162 ft 197 kts 143°
2026-05-07 14:34 38.32758 -0.86056 4664 ft 194 kts 123°
2026-05-07 14:35 38.32203 -0.84546 4370 ft 185 kts 104°
2026-05-07 14:35 38.31961 -0.82938 4115 ft 185 kts 99°
2026-05-07 14:35 38.31744 -0.81349 3863 ft 182 kts 99°
2026-05-07 14:35 38.31528 -0.79772 3608 ft 178 kts 98°
2026-05-07 14:36 38.31317 -0.78230 3383 ft 175 kts 99°
2026-05-07 14:36 38.31109 -0.76719 3151 ft 172 kts 99°
2026-05-07 14:36 38.30905 -0.75235 2936 ft 169 kts 98°
2026-05-07 14:36 38.30710 -0.73814 2717 ft 153 kts 99°
2026-05-07 14:37 38.30532 -0.72519 2507 ft 143 kts 98°
2026-05-07 14:37 38.30196 -0.70087 2134 ft 137 kts 98°
2026-05-07 14:37 38.30032 -0.68896 1948 ft 136 kts 97°
2026-05-07 14:38 38.29867 -0.67701 1771 ft 137 kts 98°
2026-05-07 14:38 38.29704 -0.66526 1581 ft 137 kts 99°
2026-05-07 14:38 38.29540 -0.65337 1394 ft 136 kts 99°
2026-05-07 14:38 38.29375 -0.64147 1211 ft 137 kts 99°
2026-05-07 14:39 38.29211 -0.62961 1025 ft 135 kts 99°
2026-05-07 14:39 38.29048 -0.61785 874 ft 135 kts 98°
2026-05-07 14:39 38.28886 -0.60624 690 ft 134 kts 98°
2026-05-07 14:39 38.28724 -0.59451 504 ft 133 kts 99°
2026-05-07 14:40 38.28555 -0.58286 350 ft 133 kts 100°
2026-05-07 14:40 38.28398 -0.57141 173 ft 132 kts 98°
2026-05-07 14:40 38.28249 -0.56044 108 ft 109 kts 99°
2026-05-07 14:40 38.28159 -0.55391 90 ft 45 kts 104°
2026-05-07 14:41 38.28115 -0.55047 81 ft 35 kts 84°
2026-05-07 14:41 38.28165 -0.54817 68 ft 21 kts 65°
2026-05-07 14:41 38.28238 -0.54742 65 ft 12 kts 330°
2026-05-07 14:41 38.28257 -0.54816 68 ft 7 kts 275°
2026-05-07 14:42 38.28267 -0.54942 74 ft 21 kts 284°
2026-05-07 14:42 38.28295 -0.55107 82 ft 16 kts 280°
2026-05-07 14:42 38.28312 -0.55231 91 ft 18 kts 280°
2026-05-07 14:42 38.28337 -0.55406 92 ft 21 kts 282°
2026-05-07 14:43 38.28359 -0.55554 97 ft 12 kts 279°
2026-05-07 14:43 38.28404 -0.55605 100 ft 11 kts 353°
2026-05-07 14:43 38.28480 -0.55574 95 ft 10 kts 56°
2026-05-07 14:43 38.28520 -0.55516 94 ft 10 kts 14°
2026-05-07 14:44 38.28565 -0.55505 92 ft 3 kts
2026-05-07 14:44 38.28567 -0.55505 92 ft 0 kts